[[{"header":{"parameterUnit":"m.s-1","parameterCategory":2,"la1":30.2991,"la2":30.254,"lo1":-89.0895,"lo2":-89.0444,"dy":0.0017,"dx":0.0017,"nx":28,"ny":28,"refTime":"2024-02-18T03:00:00:Z","depth":"0","parameterNumber":2,"parameterNumberName":"U-component_of_CURRENTS"},"data":[0,0,0,0,0,0,0,0,0,0,0,0,0,0,0,0,0,0,0,0,0,0,0,0,0,0,0,0,0,0,0,0,0,0,0,0,0,0,0,0,0,0,0,0,0,0,0,0,0,0,0,0,0,0,0,0,0,0,-0.2913,-0.2914,0,-0.2945,-0.2946,-0.2946,-0.2929,-0.2928,-0.2927,-0.2927,-0.2928,-0.2928,-0.2929,0,0,0,0,0,0,0,0,0,0,0,0,0,-0.2847,-0.2848,-0.2913,-0.2914,-0.2914,-0.2945,-0.2946,-0.2946,-0.2929,-0.2928,-0.2927,-0.2926,-0.2927,-0.2928,-0.2929,0,0,0,0,0,0,0,0,0,0,0,0,0,-0.2875,-0.2848,-0.2913,-0.2911,-0.2911,-0.2945,-0.2946,-0.2946,-0.2929,-0.2928,-0.2927,-0.2926,-0.2927,-0.2928,-0.2929,-0.2955,0,0,-0.2932,-0.2932,0,0,0,0,0,0,0,0,-0.2873,-0.2877,-0.2911,-0.2911,-0.2912,-0.2934,-0.2923,-0.2948,-0.2929,-0.292,-0.2927,-0.2926,-0.2929,-0.293,-0.2935,-0.2955,-0.2955,-0.2932,-0.2933,-0.2933,-0.2933,0,0,0,0,0,0,0,-0.2871,-0.2876,-0.2924,-0.2912,-0.2912,-0.2912,-0.2915,-0.2927,-0.2928,-0.2921,-0.292,-0.2927,-0.2928,-0.2935,-0.2935,-0.2955,-0.2932,-0.2933,-0.2934,-0.2934,-0.2986,-0.2986,0,0,0,0,0,0,-0.2872,-0.2874,-0.2923,-0.2925,-0.2892,-0.2914,-0.2917,-0.2926,-0.2928,-0.2928,-0.2928,-0.2927,-0.2933,-0.2934,-0.2935,-0.2959,-0.2933,-0.2934,-0.2935,-0.2985,-0.2986,-0.2987,0,0,0,0,0,0,-0.2871,-0.2877,-0.2922,-0.2901,-0.2907,-0.2917,-0.2927,-0.2927,-0.293,-0.2935,-0.2933,-0.293,-0.2933,-0.2934,-0.2948,-0.2959,-0.2934,-0.2935,-0.2984,-0.2985,-0.2986,-0.3012,0,0,0,0,0,0,-0.2869,-0.2876,-0.288,-0.2902,-0.2909,-0.2948,-0.2928,-0.2929,-0.2937,-0.2935,-0.2936,-0.2935,-0.2932,-0.2947,-0.2949,-0.296,-0.2936,-0.2983,-0.2984,-0.2986,-0.301,-0.3014,-0.3017,0,0,0,0,0,-0.2866,-0.2881,-0.288,-0.2886,-0.2915,-0.2949,-0.2953,-0.2954,-0.2938,-0.295,-0.2946,-0.2935,-0.2958,-0.2949,-0.2951,-0.2962,-0.2982,-0.2984,-0.2986,-0.3008,-0.3013,-0.3017,0,0,0,0,0,0,-0.2853,-0.2881,-0.2881,-0.2902,-0.2926,-0.2947,-0.2955,-0.2957,-0.2963,-0.2955,-0.2949,-0.295,-0.2968,-0.2964,-0.2954,-0.2982,-0.2967,-0.2969,-0.2983,-0.2988,-0.2991,-0.3,-0.2937,0,0,0,0,0,-0.2854,-0.2866,-0.2898,-0.2911,-0.2925,-0.2939,-0.295,-0.2955,-0.2966,-0.2967,-0.2969,-0.2969,-0.298,-0.2981,-0.2992,-0.3009,-0.3002,-0.3017,-0.302,-0.3023,-0.3032,-0.3029,-0.3033,-0.2992,-0.2992,-0.2992,0,0,-0.2849,-0.2867,-0.2872,-0.2909,-0.2921,-0.2951,-0.2942,-0.2964,-0.2984,-0.2968,-0.2986,-0.2987,-0.2989,-0.3008,-0.3015,-0.3003,-0.3031,-0.3025,-0.3028,-0.3036,-0.3031,-0.3035,-0.3038,-0.2994,-0.2993,-0.2993,0,0,-0.2855,-0.2866,-0.2882,-0.2908,-0.2938,-0.2955,-0.2963,-0.2991,-0.2997,-0.302,-0.3012,-0.3021,-0.3033,-0.304,-0.3043,-0.3075,-0.3054,-0.3072,-0.3092,-0.3088,-0.3091,-0.3094,-0.3088,-0.309,-0.3068,-0.3068,-0.3068,0,-0.2848,-0.2871,-0.2893,-0.2922,-0.2939,-0.2958,-0.2985,-0.3006,-0.3032,-0.304,-0.3027,-0.3048,-0.3051,-0.3074,-0.3084,-0.3083,-0.3073,-0.3074,-0.3092,-0.3094,-0.3097,-0.309,-0.3092,-0.3069,-0.3069,-0.3069,-0.3069,0,-0.2869,-0.289,-0.2903,-0.2943,-0.2971,-0.2994,-0.3033,-0.3056,-0.3058,-0.3072,-0.3093,-0.3097,-0.3104,-0.3108,-0.3106,-0.3128,-0.3113,-0.31,-0.3079,-0.3102,-0.3094,-0.3095,-0.3071,-0.3071,-0.307,-0.307,0,0,-0.284,-0.2904,-0.2907,-0.2927,-0.298,-0.3006,-0.3048,-0.3088,-0.311,-0.3123,-0.3143,-0.316,-0.3152,-0.3156,-0.3152,-0.3153,-0.3163,-0.3134,-0.3133,-0.3125,-0.315,-0.3162,-0.3165,-0.3146,-0.3146,-0.3147,-0.3136,0,-0.2843,-0.2889,-0.2927,-0.297,-0.2994,-0.3036,-0.3076,-0.3116,-0.3139,-0.3168,-0.317,-0.3186,-0.3173,-0.3172,-0.3174,-0.3171,-0.3168,-0.3167,-0.3132,-0.3131,-0.3137,-0.3168,-0.3116,-0.3104,-0.3137,-0.3137,-0.3137,0,-0.284,-0.2874,-0.2912,-0.2978,-0.2994,-0.3026,-0.3084,-0.3126,-0.3178,-0.3194,-0.3207,-0.3213,-0.3228,-0.3206,-0.3203,-0.3198,-0.318,-0.3171,-0.3169,-0.3176,-0.3147,-0.3088,-0.3105,-0.306,-0.3139,-0.3139,-0.3139,0,-0.2787,-0.2859,-0.2882,-0.2905,-0.2989,-0.3012,-0.3053,-0.3117,-0.3152,-0.3202,-0.3225,-0.3238,-0.3243,-0.3226,-0.3222,-0.3203,-0.3218,-0.3183,-0.3176,-0.3176,-0.3125,-0.3121,-0.3094,-0.3178,-0.3178,-0.3178,-0.3178,0,-0.2763,-0.2785,-0.2857,-0.2872,-0.2911,-0.2978,-0.3021,-0.3073,-0.3137,-0.3178,-0.3222,-0.3252,-0.3248,-0.3261,-0.3236,-0.3225,-0.3224,-0.3194,-0.3181,-0.3133,-0.313,-0.3083,-0.3079,-0.3178,-0.3178,-0.3178,-0.3178,0,-0.2699,-0.2747,-0.2783,-0.2862,-0.2884,-0.2908,-0.2994,-0.3025,-0.3102,-0.3158,-0.3172,-0.3253,-0.3276,-0.3282,-0.327,-0.3248,-0.3186,-0.3226,-0.3177,-0.316,-0.3101,-0.3101,-0.3054,-0.2958,-0.32,-0.3201,-0.3201,0,-0.2669,-0.2674,-0.2751,-0.2766,-0.2798,-0.2847,-0.2876,-0.2978,-0.3024,-0.3157,-0.3178,-0.3243,-0.3291,-0.3307,-0.3297,-0.3273,-0.3191,-0.3188,-0.315,-0.3108,-0.3097,-0.3058,-0.2976,-0.3082,-0.3081,-0.3081,-0.308,0,-0.2596,-0.2619,-0.2645,-0.2678,-0.2708,-0.2754,-0.2813,-0.285,-0.2977,-0.3057,-0.3159,-0.3216,-0.3296,-0.3295,-0.3298,-0.3249,-0.3114,-0.3175,-0.3134,-0.3019,-0.2971,-0.2869,-0.308,-0.3075,-0.3076,-0.3076,-0.3076,-0.3077,-0.2517,-0.2519,-0.2541,-0.2563,-0.2598,-0.2622,-0.2625,-0.2736,-0.2812,-0.2941,-0.3074,-0.3206,-0.3263,-0.3284,-0.3243,-0.3147,-0.3105,-0.3028,-0.3035,-0.3001,-0.2905,-0.3121,-0.3107,-0.3107,-0.3108,-0.3108,-0.3109,0,-0.2404,-0.2409,-0.2421,-0.2441,-0.2424,-0.2487,-0.2546,-0.2551,-0.2623,-0.2846,-0.2968,-0.3204,-0.3198,-0.323,-0.3196,-0.3057,-0.2922,-0.2916,-0.2827,-0.2747,-0.2937,-0.2929,-0.2873,-0.2873,-0.2873,-0.2873,-0.2873,-0.2873,-0.2338,-0.2298,-0.2306,-0.2237,-0.225,-0.2193,-0.2196,-0.2259,-0.2395,-0.2628,-0.2893,-0.315,-0.3184,-0.3334,-0.3169,-0.2991,-0.2814,-0.2734,-0.267,-0.2809,-0.2818,-0.2827,-0.2816,-0.2738,-0.2738,-0.2394,-0.2392,-0.239]},{"header":{"parameterUnit":"m.s-1","parameterCategory":2,"la1":30.2991,"la2":30.254,"lo1":-89.0895,"lo2":-89.0444,"dy":0.0017,"dx":0.0017,"nx":28,"ny":28,"refTime":"2024-02-18T03:00:00:Z","depth":"0","parameterNumber":3,"parameterNumberName":"V-component_of_CURRENTS"},"data":[0,0,0,0,0,0,0,0,0,0,0,0,0,0,0,0,0,0,0,0,0,0,0,0,0,0,0,0,0,0,0,0,0,0,0,0,0,0,0,0,0,0,0,0,0,0,0,0,0,0,0,0,0,0,0,0,0,0,-0.0408,-0.0407,0,-0.0311,-0.031,-0.0309,-0.0244,-0.0244,-0.0244,-0.0243,-0.0117,-0.0114,-0.0112,0,0,0,0,0,0,0,0,0,0,0,0,0,-0.0496,-0.0495,-0.0408,-0.0406,-0.0405,-0.0312,-0.031,-0.0309,-0.0245,-0.0244,-0.0244,-0.0243,-0.0118,-0.0115,-0.0111,0,0,0,0,0,0,0,0,0,0,0,0,0,-0.0434,-0.0494,-0.0408,-0.0362,-0.0357,-0.0312,-0.031,-0.0308,-0.0245,-0.0244,-0.0243,-0.0243,-0.0119,-0.0115,-0.0111,-0.0096,0,0,-0.0097,-0.0095,0,0,0,0,0,0,0,0,-0.0438,-0.0431,-0.037,-0.0365,-0.0359,-0.029,-0.0295,-0.0236,-0.0245,-0.0287,-0.0243,-0.0242,-0.0173,-0.0164,-0.0147,-0.009,-0.0085,-0.0097,-0.0094,-0.0092,-0.0091,0,0,0,0,0,0,0,-0.0442,-0.0435,-0.0369,-0.0369,-0.0362,-0.0333,-0.0324,-0.0284,-0.0234,-0.0283,-0.0278,-0.0268,-0.017,-0.0152,-0.0144,-0.0083,-0.0097,-0.0093,-0.009,-0.0089,-0.0004,-0.0004,0,0,0,0,0,0,-0.0457,-0.0439,-0.0372,-0.0366,-0.0398,-0.0332,-0.0322,-0.0312,-0.0235,-0.0223,-0.0269,-0.0266,-0.016,-0.0149,-0.0139,-0.0117,-0.0092,-0.0088,-0.0086,-0.0003,-0.0004,-0.0004,0,0,0,0,0,0,-0.046,-0.0453,-0.0376,-0.0401,-0.0389,-0.0331,-0.0321,-0.0311,-0.0292,-0.0224,-0.0211,-0.0261,-0.0159,-0.0145,-0.0109,-0.0112,-0.0086,-0.0082,-0.0003,-0.0004,-0.0004,-0.0073,0,0,0,0,0,0,-0.0463,-0.0454,-0.0455,-0.0402,-0.0388,-0.0356,-0.0322,-0.0309,-0.0287,-0.0282,-0.0213,-0.0201,-0.0157,-0.0116,-0.0105,-0.0105,-0.0079,-0.0002,-0.0003,-0.0004,-0.0071,-0.0076,-0.0081,0,0,0,0,0,-0.0466,-0.0471,-0.0456,-0.0448,-0.0391,-0.0357,-0.0348,-0.0304,-0.0288,-0.0284,-0.024,-0.0203,-0.0113,-0.0113,-0.0099,-0.0099,-0.0002,-0.0003,-0.0004,-0.0068,-0.0075,-0.0081,0,0,0,0,0,0,-0.0508,-0.0463,-0.0446,-0.0436,-0.0403,-0.0346,-0.0339,-0.0311,-0.0273,-0.0269,-0.0206,-0.0191,-0.0157,-0.0123,-0.0125,-0.0078,-0.0052,-0.005,-0.0105,-0.0111,-0.0117,-0.0121,-0.0075,0,0,0,0,0,-0.052,-0.0514,-0.0465,-0.0459,-0.0445,-0.0395,-0.0377,-0.0349,-0.0307,-0.029,-0.0241,-0.0194,-0.0151,-0.0129,-0.0085,-0.0062,-0.0022,-0.0054,-0.006,-0.0064,-0.0059,-0.0009,-0.0009,-0.0007,-0.0007,-0.0007,0,0,-0.0535,-0.0511,-0.0506,-0.0468,-0.0439,-0.0427,-0.0383,-0.0362,-0.0349,-0.0283,-0.0254,-0.0207,-0.0148,-0.0119,-0.0101,-0.0091,-0.0046,-0.0066,-0.007,-0.0062,-0.001,-0.001,-0.001,-0.0008,-0.0008,-0.0008,0,0,-0.0567,-0.0541,-0.0548,-0.0527,-0.0491,-0.0456,-0.0455,-0.0402,-0.0376,-0.0347,-0.0294,-0.0254,-0.0192,-0.015,-0.0121,-0.0131,-0.0073,-0.0118,-0.0149,-0.0101,-0.0101,-0.01,-0.0061,-0.0056,-0.0124,-0.0125,-0.0125,0,-0.0589,-0.0586,-0.0545,-0.0547,-0.0535,-0.0475,-0.0479,-0.0444,-0.0387,-0.0366,-0.0349,-0.025,-0.0207,-0.0159,-0.0163,-0.0142,-0.0106,-0.0131,-0.0108,-0.0106,-0.0104,-0.0064,-0.0058,-0.0128,-0.0128,-0.0127,-0.0127,0,-0.0625,-0.0623,-0.0626,-0.0607,-0.0589,-0.0583,-0.0532,-0.0509,-0.0472,-0.0428,-0.0373,-0.0309,-0.025,-0.0233,-0.02,-0.0162,-0.0139,-0.0118,-0.0093,-0.0108,-0.0066,-0.0058,-0.0133,-0.0132,-0.0131,-0.013,0,0,-0.0672,-0.0656,-0.0657,-0.0664,-0.0622,-0.0614,-0.059,-0.0547,-0.0532,-0.0469,-0.0438,-0.0365,-0.0319,-0.0284,-0.0232,-0.0191,-0.0154,-0.0155,-0.015,-0.0119,-0.0049,0.0,0.0014,-0.0126,-0.0125,-0.0124,-0.003,0,-0.0712,-0.074,-0.071,-0.073,-0.0739,-0.0684,-0.0672,-0.0627,-0.0569,-0.0524,-0.0441,-0.0392,-0.034,-0.0316,-0.0264,-0.0174,-0.0134,-0.0182,-0.0036,-0.0032,0.0012,0.0025,0.0049,0.0138,-0.0022,-0.0021,-0.002,0,-0.0758,-0.077,-0.08,-0.0801,-0.0799,-0.0801,-0.0767,-0.074,-0.0654,-0.0611,-0.0532,-0.0458,-0.0375,-0.0339,-0.0191,-0.0221,-0.0143,-0.0077,-0.0071,0.0008,0.0033,0.0131,0.0159,0.0308,-0.0007,-0.0008,-0.0009,0,-0.0823,-0.0833,-0.0862,-0.0863,-0.0849,-0.0855,-0.0838,-0.0772,-0.075,-0.0655,-0.0627,-0.0506,-0.045,-0.0328,-0.0177,-0.0185,-0.0012,-0.0009,0.0109,0.0113,0.0181,0.0189,0.0371,0.0088,0.0088,0.0087,0.0087,0,-0.0881,-0.0905,-0.0902,-0.0923,-0.0967,-0.0924,-0.0937,-0.0899,-0.0833,-0.0811,-0.0676,-0.063,-0.0444,-0.0315,-0.0186,-0.0,-0.0015,0.0116,0.0148,0.0156,0.016,0.0331,0.0419,0.0091,0.009,0.0089,0.0089,0,-0.0949,-0.0941,-0.0984,-0.0993,-0.1002,-0.1032,-0.1023,-0.1024,-0.0944,-0.0908,-0.0882,-0.0718,-0.0547,-0.0349,-0.0145,-0.0015,0.0263,0.0217,0.0213,0.0244,0.0482,0.0564,0.0843,0.0894,0.0355,0.0357,0.0359,0,-0.0986,-0.1013,-0.1054,-0.1092,-0.1102,-0.1131,-0.1155,-0.1096,-0.1084,-0.0964,-0.0956,-0.0776,-0.0651,-0.0306,-0.0039,0.0217,0.0345,0.039,0.038,0.0517,0.0632,0.0713,0.074,0.0435,0.0438,0.0439,0.0441,0,-0.1056,-0.1067,-0.1105,-0.119,-0.1236,-0.1277,-0.1296,-0.1307,-0.1221,-0.1186,-0.1093,-0.0978,-0.0609,-0.0288,0.0084,0.0244,0.0527,0.0433,0.0584,0.0729,0.0823,0.0879,0.0343,0.0456,0.0454,0.0453,0.0452,0.0452,-0.1104,-0.1157,-0.121,-0.129,-0.1347,-0.1408,-0.145,-0.1451,-0.1449,-0.1374,-0.122,-0.1035,-0.0488,0.0043,0.0236,0.068,0.0658,0.079,0.0881,0.0953,0.101,0.0506,0.065,0.065,0.0649,0.0649,0.0649,0,-0.1167,-0.1225,-0.1308,-0.1401,-0.1483,-0.1484,-0.1534,-0.1565,-0.1589,-0.146,-0.1347,-0.0785,-0.0266,0.0241,0.0914,0.1126,0.1158,0.1228,0.1341,0.1342,0.0904,0.0912,0.1107,0.1107,0.1107,0.1107,0.1107,0.1106,-0.12,-0.1294,-0.1343,-0.1494,-0.156,-0.1657,-0.169,-0.1728,-0.1658,-0.1461,-0.1165,-0.0912,-0.0081,0.1074,0.1638,0.1638,0.1774,0.1788,0.1851,0.1544,0.1508,0.1475,0.1501,0.1818,0.1819,0.2236,0.224,0.2243]}],[{"header":{"parameterUnit":"m.s-1","parameterCategory":2,"la1":30.2991,"la2":30.254,"lo1":-89.0895,"lo2":-89.0444,"dy":0.0017,"dx":0.0017,"nx":28,"ny":28,"refTime":"2024-02-18T03:00:00:Z","depth":"2","parameterNumber":2,"parameterNumberName":"U-component_of_CURRENTS"},"data":[0,0,0,0,0,0,0,0,0,0,0,0,0,0,0,0,0,0,0,0,0,0,0,0,0,0,0,0,0,0,0,0,0,0,0,0,0,0,0,0,0,0,0,0,0,0,0,0,0,0,0,0,0,0,0,0,0,0,-0.2856,-0.2856,0,-0.2888,-0.2888,-0.2888,-0.2874,-0.2873,-0.2872,-0.2872,-0.2874,-0.2875,-0.2876,0,0,0,0,0,0,0,0,0,0,0,0,0,-0.279,-0.2791,-0.2856,-0.2856,-0.2857,-0.2888,-0.2888,-0.2888,-0.2874,-0.2873,-0.2872,-0.2872,-0.2874,-0.2875,-0.2876,0,0,0,0,0,0,0,0,0,0,0,0,0,-0.2818,-0.2792,-0.2856,-0.2855,-0.2855,-0.2888,-0.2888,-0.2888,-0.2874,-0.2873,-0.2872,-0.2871,-0.2874,-0.2875,-0.2876,-0.29,0,0,-0.2879,-0.2879,0,0,0,0,0,0,0,0,-0.2817,-0.282,-0.2854,-0.2855,-0.2856,-0.2878,-0.2866,-0.2891,-0.2874,-0.2865,-0.2872,-0.2871,-0.2875,-0.2876,-0.2881,-0.29,-0.29,-0.2879,-0.2879,-0.288,-0.288,0,0,0,0,0,0,0,-0.2815,-0.2819,-0.2866,-0.2855,-0.2856,-0.2856,-0.2859,-0.2871,-0.2872,-0.2865,-0.2865,-0.2872,-0.2874,-0.288,-0.2881,-0.29,-0.2879,-0.288,-0.288,-0.2881,-0.2932,-0.2933,0,0,0,0,0,0,-0.2816,-0.2817,-0.2865,-0.2867,-0.2836,-0.2858,-0.2861,-0.287,-0.2873,-0.2873,-0.2873,-0.2871,-0.2879,-0.288,-0.2881,-0.2906,-0.288,-0.2881,-0.2881,-0.2931,-0.2932,-0.2933,0,0,0,0,0,0,-0.2814,-0.282,-0.2864,-0.2844,-0.285,-0.286,-0.287,-0.2871,-0.2875,-0.2879,-0.2878,-0.2876,-0.2878,-0.288,-0.2895,-0.2906,-0.2881,-0.2882,-0.293,-0.2932,-0.2933,-0.2959,0,0,0,0,0,0,-0.2812,-0.2819,-0.2824,-0.2845,-0.2851,-0.289,-0.2871,-0.2872,-0.2882,-0.288,-0.2882,-0.2881,-0.2878,-0.2893,-0.2896,-0.2907,-0.2883,-0.2929,-0.2931,-0.2932,-0.2958,-0.2961,-0.2965,0,0,0,0,0,-0.281,-0.2824,-0.2824,-0.283,-0.2858,-0.2892,-0.2895,-0.2897,-0.2883,-0.2895,-0.2892,-0.2881,-0.2904,-0.2895,-0.2898,-0.291,-0.2929,-0.293,-0.2932,-0.2956,-0.2961,-0.2965,0,0,0,0,0,0,-0.2797,-0.2825,-0.2825,-0.2846,-0.2869,-0.289,-0.2898,-0.2901,-0.2908,-0.29,-0.2895,-0.2896,-0.2915,-0.2911,-0.29,-0.2929,-0.2914,-0.2916,-0.2931,-0.2935,-0.2939,-0.2947,-0.2883,0,0,0,0,0,-0.2798,-0.2811,-0.2842,-0.2855,-0.2868,-0.2883,-0.2894,-0.29,-0.2911,-0.2913,-0.2915,-0.2916,-0.2926,-0.2928,-0.2939,-0.2955,-0.2949,-0.2964,-0.2968,-0.2971,-0.298,-0.2977,-0.2981,-0.2939,-0.2939,-0.2939,0,0,-0.2794,-0.2811,-0.2817,-0.2853,-0.2865,-0.2895,-0.2886,-0.2909,-0.2929,-0.2913,-0.2932,-0.2934,-0.2935,-0.2955,-0.2962,-0.295,-0.2979,-0.2973,-0.2975,-0.2983,-0.2979,-0.2983,-0.2987,-0.294,-0.294,-0.294,0,0,-0.28,-0.2811,-0.2828,-0.2853,-0.2884,-0.29,-0.2908,-0.2936,-0.2943,-0.2966,-0.2959,-0.2969,-0.2981,-0.2988,-0.2991,-0.3023,-0.3003,-0.3021,-0.3041,-0.3038,-0.3041,-0.3044,-0.3038,-0.3041,-0.3016,-0.3016,-0.3016,0,-0.2794,-0.2817,-0.2838,-0.2867,-0.2884,-0.2904,-0.293,-0.2951,-0.2978,-0.2986,-0.2974,-0.2996,-0.2999,-0.3021,-0.3033,-0.3031,-0.3022,-0.3022,-0.3042,-0.3045,-0.3047,-0.3041,-0.3043,-0.3018,-0.3018,-0.3018,-0.3017,0,-0.2815,-0.2836,-0.2849,-0.2888,-0.2916,-0.2939,-0.2977,-0.3001,-0.3005,-0.3019,-0.3041,-0.3045,-0.3053,-0.3057,-0.3055,-0.3077,-0.3063,-0.305,-0.3029,-0.3053,-0.3045,-0.3046,-0.302,-0.302,-0.3019,-0.3019,0,0,-0.2787,-0.285,-0.2853,-0.2873,-0.2925,-0.2951,-0.2993,-0.3032,-0.3055,-0.307,-0.309,-0.3108,-0.3101,-0.3105,-0.3102,-0.3104,-0.3115,-0.3085,-0.3084,-0.3077,-0.3103,-0.3113,-0.3116,-0.3098,-0.3099,-0.3099,-0.309,0,-0.279,-0.2836,-0.2873,-0.2916,-0.2939,-0.2981,-0.3021,-0.3061,-0.3084,-0.3114,-0.3117,-0.3134,-0.3121,-0.3122,-0.3125,-0.3123,-0.312,-0.3118,-0.3085,-0.3084,-0.3087,-0.3119,-0.2829,-0.2798,-0.3091,-0.3091,-0.3091,0,-0.2788,-0.2821,-0.2859,-0.2924,-0.294,-0.2971,-0.3029,-0.3071,-0.3123,-0.314,-0.3155,-0.3162,-0.3177,-0.3157,-0.3155,-0.315,-0.3133,-0.3124,-0.3123,-0.3127,-0.3098,-0.2823,-0.279,-0.3094,-0.3094,-0.3093,-0.3093,0,-0.2736,-0.2806,-0.283,-0.2852,-0.2935,-0.2958,-0.2999,-0.3063,-0.3097,-0.3149,-0.3172,-0.3187,-0.3194,-0.3178,-0.3175,-0.3157,-0.3172,-0.3138,-0.313,-0.3129,-0.2876,-0.2854,-0.3134,-0.3134,-0.3134,-0.3134,-0.3134,0,-0.2712,-0.2734,-0.2806,-0.2821,-0.286,-0.2925,-0.2969,-0.3021,-0.3085,-0.3126,-0.317,-0.3201,-0.3199,-0.3213,-0.3189,-0.3178,-0.3178,-0.3147,-0.3134,-0.2879,-0.2859,-0.3109,-0.3106,-0.3134,-0.3134,-0.3134,-0.3134,0,-0.265,-0.2697,-0.2733,-0.2811,-0.2833,-0.2858,-0.2943,-0.2973,-0.3051,-0.3106,-0.3121,-0.3201,-0.3226,-0.3233,-0.3223,-0.32,-0.3186,-0.3179,-0.2893,-0.2849,-0.3134,-0.3133,-0.3152,-0.3152,-0.3152,-0.3153,-0.3153,0,-0.262,-0.2625,-0.2703,-0.2717,-0.2749,-0.2798,-0.2827,-0.2928,-0.2973,-0.3104,-0.3125,-0.319,-0.3231,-0.3248,-0.318,-0.3142,-0.3204,-0.2891,-0.282,-0.3154,-0.3139,-0.3137,-0.3135,-0.2474,-0.2468,-0.2464,-0.2461,0,-0.2549,-0.2572,-0.2598,-0.2631,-0.2661,-0.2705,-0.2764,-0.28,-0.2926,-0.2998,-0.3097,-0.3146,-0.3172,-0.3022,-0.3003,-0.2934,-0.2876,-0.2808,-0.3193,-0.2555,-0.2525,-0.2508,-0.2525,-0.2422,-0.2426,-0.2428,-0.2431,-0.2432,-0.2472,-0.2474,-0.2496,-0.2518,-0.2553,-0.2575,-0.2577,-0.2664,-0.2729,-0.2794,-0.2948,-0.2944,-0.2911,-0.2757,-0.2638,-0.2526,-0.2722,-0.2572,-0.2579,-0.2593,-0.2556,-0.2533,-0.2423,-0.2427,-0.243,-0.2433,-0.2435,0,-0.2353,-0.2367,-0.2378,-0.2398,-0.2372,-0.2443,-0.2499,-0.2463,-0.2496,-0.2592,-0.2655,-0.2426,-0.2351,-0.2329,-0.2103,-0.2094,-0.1996,-0.2,-0.1837,-0.1878,-0.1913,-0.1837,-0.1515,-0.1513,-0.151,-0.1508,0,0,-0.2287,-0.2244,-0.2252,-0.2179,-0.2199,-0.2125,-0.2126,-0.211,-0.2136,-0.2099,-0.2102,-0.2271,-0.2313,-0.1928,-0.1818,-0.1641,-0.174,-0.1558,-0.2292,-0.2141,-0.2174,-0.2239,-0.2169,0,0,0,0,0]},{"header":{"parameterUnit":"m.s-1","parameterCategory":2,"la1":30.2991,"la2":30.254,"lo1":-89.0895,"lo2":-89.0444,"dy":0.0017,"dx":0.0017,"nx":28,"ny":28,"refTime":"2024-02-18T03:00:00:Z","depth":"2","parameterNumber":3,"parameterNumberName":"V-component_of_CURRENTS"},"data":[0,0,0,0,0,0,0,0,0,0,0,0,0,0,0,0,0,0,0,0,0,0,0,0,0,0,0,0,0,0,0,0,0,0,0,0,0,0,0,0,0,0,0,0,0,0,0,0,0,0,0,0,0,0,0,0,0,0,-0.0338,-0.0337,0,-0.0242,-0.0241,-0.024,-0.0177,-0.0177,-0.0176,-0.0176,-0.0052,-0.0049,-0.0046,0,0,0,0,0,0,0,0,0,0,0,0,0,-0.0425,-0.0424,-0.0338,-0.0337,-0.0336,-0.0242,-0.0241,-0.024,-0.0177,-0.0177,-0.0176,-0.0176,-0.0053,-0.0049,-0.0046,0,0,0,0,0,0,0,0,0,0,0,0,0,-0.0364,-0.0424,-0.0338,-0.0293,-0.0288,-0.0243,-0.0241,-0.0239,-0.0177,-0.0177,-0.0176,-0.0175,-0.0054,-0.0049,-0.0045,-0.0029,0,0,-0.0032,-0.003,0,0,0,0,0,0,0,0,-0.0367,-0.0361,-0.0301,-0.0296,-0.0291,-0.0221,-0.0226,-0.0168,-0.0177,-0.0219,-0.0176,-0.0175,-0.0106,-0.0098,-0.0081,-0.0023,-0.0018,-0.0031,-0.0028,-0.0027,-0.0025,0,0,0,0,0,0,0,-0.0372,-0.0364,-0.03,-0.03,-0.0294,-0.0264,-0.0255,-0.0215,-0.0166,-0.0215,-0.0211,-0.0201,-0.0103,-0.0085,-0.0077,-0.0016,-0.0031,-0.0027,-0.0025,-0.0023,0.0062,0.0061,0,0,0,0,0,0,-0.0387,-0.0368,-0.0303,-0.0297,-0.0329,-0.0263,-0.0253,-0.0244,-0.0167,-0.0155,-0.0201,-0.0198,-0.0093,-0.0083,-0.0073,-0.0052,-0.0027,-0.0022,-0.002,0.0062,0.0062,0.0061,0,0,0,0,0,0,-0.0389,-0.0382,-0.0306,-0.0331,-0.0319,-0.0263,-0.0252,-0.0242,-0.0224,-0.0157,-0.0144,-0.0194,-0.0092,-0.0079,-0.0043,-0.0046,-0.002,-0.0016,0.0063,0.0062,0.0061,-0.0008,0,0,0,0,0,0,-0.0392,-0.0384,-0.0385,-0.0332,-0.0318,-0.0287,-0.0253,-0.0241,-0.0219,-0.0214,-0.0147,-0.0134,-0.0091,-0.005,-0.0039,-0.004,-0.0013,0.0063,0.0062,0.0062,-0.0005,-0.0011,-0.0016,0,0,0,0,0,-0.0396,-0.0401,-0.0386,-0.0378,-0.0321,-0.0288,-0.0278,-0.0235,-0.022,-0.0217,-0.0173,-0.0136,-0.0047,-0.0047,-0.0033,-0.0033,0.0063,0.0062,0.0062,-0.0003,-0.001,-0.0016,0,0,0,0,0,0,-0.0438,-0.0393,-0.0376,-0.0367,-0.0334,-0.0277,-0.0271,-0.0243,-0.0206,-0.0202,-0.014,-0.0125,-0.0091,-0.0057,-0.0059,-0.0012,0.0014,0.0015,-0.004,-0.0046,-0.0051,-0.0056,-0.0009,0,0,0,0,0,-0.045,-0.0444,-0.0395,-0.039,-0.0376,-0.0326,-0.0308,-0.0281,-0.024,-0.0222,-0.0175,-0.0127,-0.0085,-0.0063,-0.0019,0.0003,0.0043,0.0011,0.0006,0.0001,0.0005,0.0055,0.0055,0.0058,0.0058,0.0058,0,0,-0.0465,-0.0441,-0.0437,-0.0399,-0.037,-0.0358,-0.0314,-0.0294,-0.0282,-0.0215,-0.0188,-0.0141,-0.0082,-0.0053,-0.0036,-0.0025,0.0018,-0.0,-0.0005,0.0003,0.0055,0.0054,0.0054,0.0057,0.0058,0.0058,0,0,-0.0497,-0.0472,-0.0479,-0.0458,-0.0423,-0.0388,-0.0387,-0.0335,-0.0309,-0.028,-0.0227,-0.0188,-0.0127,-0.0084,-0.0055,-0.0066,-0.0008,-0.0053,-0.0085,-0.0037,-0.0037,-0.0036,0.0002,0.0007,-0.0059,-0.006,-0.006,0,-0.052,-0.0517,-0.0476,-0.0479,-0.0466,-0.0407,-0.0411,-0.0377,-0.032,-0.0299,-0.0283,-0.0185,-0.0141,-0.0094,-0.0098,-0.0077,-0.0041,-0.0067,-0.0044,-0.0042,-0.004,-0.0001,0.0006,-0.0063,-0.0063,-0.0062,-0.0062,0,-0.0556,-0.0554,-0.0557,-0.0539,-0.052,-0.0515,-0.0464,-0.0442,-0.0405,-0.0362,-0.0308,-0.0244,-0.0186,-0.0168,-0.0135,-0.0098,-0.0075,-0.0054,-0.0029,-0.0044,-0.0002,0.0005,-0.0068,-0.0067,-0.0066,-0.0065,0,0,-0.0604,-0.0587,-0.0588,-0.0595,-0.0553,-0.0546,-0.0523,-0.048,-0.0465,-0.0403,-0.0373,-0.03,-0.0255,-0.022,-0.0168,-0.0128,-0.0092,-0.0091,-0.0087,-0.0057,0.0012,0.006,0.0073,-0.0064,-0.0063,-0.0062,0.0031,0,-0.0644,-0.0671,-0.0641,-0.0662,-0.067,-0.0615,-0.0604,-0.0559,-0.0503,-0.0458,-0.0376,-0.0327,-0.0277,-0.0253,-0.0202,-0.0112,-0.0072,-0.0119,0.0026,0.003,0.0072,0.0084,0.0059,0.0144,0.0039,0.004,0.0041,0,-0.0689,-0.0701,-0.0731,-0.0732,-0.073,-0.0732,-0.0699,-0.0672,-0.0587,-0.0546,-0.0468,-0.0394,-0.0312,-0.0277,-0.0129,-0.0159,-0.0082,-0.0016,-0.0011,0.0068,0.0093,0.0146,0.0163,0.0055,0.0054,0.0053,0.0052,0,-0.0754,-0.0764,-0.0793,-0.0793,-0.0779,-0.0786,-0.077,-0.0704,-0.0683,-0.059,-0.0563,-0.0443,-0.0388,-0.0267,-0.0117,-0.0125,0.0047,0.0051,0.0167,0.0171,0.0197,0.0202,0.0147,0.0147,0.0146,0.0146,0.0146,0,-0.0812,-0.0835,-0.0833,-0.0854,-0.0898,-0.0855,-0.0868,-0.0832,-0.0767,-0.0745,-0.0611,-0.0566,-0.0382,-0.0254,-0.0126,0.0058,0.0044,0.0173,0.0205,0.0171,0.0172,0.0134,0.0131,0.015,0.0149,0.0148,0.0148,0,-0.0879,-0.0871,-0.0914,-0.0923,-0.0933,-0.0963,-0.0954,-0.0956,-0.0878,-0.0841,-0.0817,-0.0654,-0.0485,-0.0289,-0.0086,0.0042,0.0209,0.0273,0.0221,0.0247,0.0297,0.029,0.0403,0.0406,0.0408,0.041,0.0412,0,-0.0916,-0.0942,-0.0983,-0.1021,-0.1032,-0.1061,-0.1085,-0.1028,-0.1016,-0.0897,-0.0888,-0.0711,-0.0585,-0.0245,0.0014,0.0267,0.0259,0.0392,0.0376,0.0307,0.0327,0.0316,0.0306,0.0374,0.0376,0.0377,0.0377,0,-0.0985,-0.0996,-0.1034,-0.1118,-0.1164,-0.1204,-0.1223,-0.1234,-0.115,-0.1111,-0.1018,-0.0904,-0.0546,-0.0244,0.0121,0.026,0.0355,0.042,0.0376,0.0315,0.0289,0.0305,0.0294,0.0385,0.0385,0.0384,0.0384,0.0383,-0.1032,-0.1085,-0.1138,-0.1217,-0.1273,-0.1333,-0.1374,-0.1359,-0.1351,-0.1249,-0.1121,-0.0907,-0.0573,-0.006,0.0206,0.0457,0.0432,0.0499,0.0492,0.0485,0.0468,0.0447,0.0569,0.057,0.057,0.057,0.057,0,-0.1085,-0.1152,-0.1234,-0.1325,-0.1395,-0.1408,-0.1457,-0.1449,-0.1446,-0.1307,-0.1176,-0.0799,-0.042,-0.0077,0.0334,0.0574,0.0544,0.0605,0.0526,0.0517,0.0509,0.0489,0.0598,0.0599,0.06,0.06,0,0,-0.1116,-0.1205,-0.1252,-0.1395,-0.1468,-0.1541,-0.1573,-0.1543,-0.1447,-0.1313,-0.1136,-0.0849,-0.0426,-0.012,0.019,0.0406,0.0386,0.0416,0.0368,0.0227,0.0216,0.0424,0.0381,0,0,0,0,0]}],[{"header":{"parameterUnit":"m.s-1","parameterCategory":2,"la1":30.2991,"la2":30.254,"lo1":-89.0895,"lo2":-89.0444,"dy":0.0017,"dx":0.0017,"nx":28,"ny":28,"refTime":"2024-02-18T03:00:00:Z","depth":"4","parameterNumber":2,"parameterNumberName":"U-component_of_CURRENTS"},"data":[0,0,0,0,0,0,0,0,0,0,0,0,0,0,0,0,0,0,0,0,0,0,0,0,0,0,0,0,0,0,0,0,0,0,0,0,0,0,0,0,0,0,0,0,0,0,0,0,0,0,0,0,0,0,0,0,0,0,-0.1848,-0.1849,0,-0.1919,-0.1919,-0.192,-0.197,-0.1971,-0.1971,-0.1972,-0.2052,-0.2054,-0.2055,0,0,0,0,0,0,0,0,0,0,0,0,0,-0.1748,-0.1749,-0.1848,-0.1849,-0.185,-0.1919,-0.1919,-0.192,-0.197,-0.1971,-0.1971,-0.1972,-0.2052,-0.2053,-0.2055,0,0,0,0,0,0,0,0,0,0,0,0,0,-0.1801,-0.175,-0.1847,-0.1884,-0.1888,-0.1918,-0.1919,-0.192,-0.197,-0.1971,-0.1971,-0.1972,-0.2051,-0.2053,-0.2056,-0.2055,0,0,-0.2063,-0.2064,0,0,0,0,0,0,0,0,-0.1798,-0.1804,-0.1877,-0.1881,-0.1886,-0.1938,-0.1914,-0.1967,-0.197,-0.1937,-0.1972,-0.1973,-0.2015,-0.202,-0.203,-0.2059,-0.2062,-0.2064,-0.2065,-0.2066,-0.2067,0,0,0,0,0,0,0,-0.1794,-0.1802,-0.1874,-0.1879,-0.1884,-0.1894,-0.1903,-0.1924,-0.197,-0.194,-0.1944,-0.1954,-0.2017,-0.2027,-0.2032,-0.2064,-0.2063,-0.2066,-0.2067,-0.2068,-0.2184,-0.2185,0,0,0,0,0,0,-0.1788,-0.1798,-0.1872,-0.1877,-0.1845,-0.1896,-0.1905,-0.1919,-0.197,-0.1978,-0.1953,-0.1956,-0.2023,-0.2029,-0.2035,-0.2121,-0.2066,-0.2068,-0.207,-0.2182,-0.2184,-0.2186,0,0,0,0,0,0,-0.1786,-0.1794,-0.1869,-0.184,-0.185,-0.1897,-0.1912,-0.192,-0.1964,-0.198,-0.1989,-0.1993,-0.2024,-0.2032,-0.2086,-0.2121,-0.2069,-0.2072,-0.218,-0.2183,-0.2185,-0.2239,0,0,0,0,0,0,-0.1783,-0.1793,-0.1817,-0.184,-0.1852,-0.1913,-0.1912,-0.1921,-0.1968,-0.1973,-0.2016,-0.2023,-0.2025,-0.2082,-0.2088,-0.2124,-0.2074,-0.2178,-0.2181,-0.2184,-0.2235,-0.2243,-0.2249,0,0,0,0,0,-0.1779,-0.1804,-0.1818,-0.1828,-0.1878,-0.1915,-0.1923,-0.1956,-0.1969,-0.1997,-0.2026,-0.2023,-0.2105,-0.2085,-0.2092,-0.2129,-0.2177,-0.218,-0.2184,-0.2232,-0.2241,-0.2249,0,0,0,0,0,0,-0.1776,-0.1812,-0.1828,-0.1865,-0.19,-0.1924,-0.1957,-0.1975,-0.202,-0.2034,-0.2044,-0.2053,-0.2114,-0.2114,-0.2092,-0.2171,-0.214,-0.2145,-0.2174,-0.2183,-0.219,-0.2191,-0.2076,0,0,0,0,0,-0.1784,-0.1815,-0.1849,-0.1882,-0.1903,-0.1936,-0.1961,-0.1984,-0.2017,-0.204,-0.2071,-0.2101,-0.2128,-0.2151,-0.2176,-0.2219,-0.2207,-0.2248,-0.2255,-0.2261,-0.2267,-0.2271,-0.2279,-0.2197,-0.2197,-0.2197,0,0,-0.1792,-0.1817,-0.1836,-0.1884,-0.1914,-0.1952,-0.1954,-0.2003,-0.2042,-0.204,-0.2114,-0.2133,-0.2146,-0.2197,-0.2224,-0.2206,-0.2279,-0.2265,-0.227,-0.2273,-0.2275,-0.2283,-0.229,-0.22,-0.2199,-0.2199,0,0,-0.1813,-0.1849,-0.188,-0.1912,-0.1965,-0.1986,-0.2008,-0.2057,-0.2091,-0.215,-0.216,-0.2201,-0.225,-0.2265,-0.2275,-0.2337,-0.2318,-0.2351,-0.2389,-0.2393,-0.2399,-0.2404,-0.2401,-0.2405,-0.2352,-0.2353,-0.2353,0,-0.1824,-0.1863,-0.1896,-0.1933,-0.1965,-0.2005,-0.2045,-0.2084,-0.2148,-0.2175,-0.2185,-0.2259,-0.2279,-0.2322,-0.235,-0.2354,-0.2349,-0.2353,-0.2401,-0.2406,-0.241,-0.2405,-0.241,-0.2356,-0.2355,-0.2355,-0.2355,0,-0.1855,-0.1901,-0.1925,-0.1984,-0.2025,-0.2067,-0.2119,-0.2172,-0.2215,-0.2244,-0.2314,-0.2338,-0.2376,-0.2394,-0.2395,-0.2443,-0.2427,-0.2409,-0.2375,-0.2422,-0.2413,-0.2417,-0.236,-0.2359,-0.2358,-0.2357,0,0,-0.1832,-0.1927,-0.1939,-0.1977,-0.2055,-0.2088,-0.2161,-0.2224,-0.2271,-0.2332,-0.2382,-0.2438,-0.2451,-0.2464,-0.2473,-0.2485,-0.252,-0.247,-0.2469,-0.246,-0.2528,-0.239,-0.2381,-0.251,-0.2511,-0.2512,-0.2509,0,-0.1847,-0.1918,-0.1967,-0.2044,-0.2081,-0.2146,-0.2207,-0.2273,-0.233,-0.2393,-0.2423,-0.2477,-0.2477,-0.2502,-0.2517,-0.2521,-0.2532,-0.2522,-0.249,-0.2489,-0.2355,-0.2381,-0.2515,-0.2511,-0.2512,-0.2513,-0.2513,0,-0.1847,-0.1898,-0.1974,-0.2069,-0.2095,-0.2152,-0.2249,-0.231,-0.2398,-0.2441,-0.2493,-0.252,-0.2566,-0.2552,-0.2574,-0.2569,-0.256,-0.2553,-0.2552,-0.2406,-0.2358,-0.2456,-0.2519,-0.2518,-0.2518,-0.2518,-0.2517,0,-0.1789,-0.1897,-0.1959,-0.1993,-0.2109,-0.2163,-0.2227,-0.2323,-0.2375,-0.2474,-0.2513,-0.2564,-0.2595,-0.2596,-0.2598,-0.259,-0.2605,-0.2582,-0.2449,-0.2439,-0.254,-0.2534,-0.2593,-0.2593,-0.2593,-0.2593,-0.2593,0,-0.1757,-0.181,-0.1944,-0.1974,-0.2053,-0.2144,-0.2229,-0.2303,-0.2397,-0.2447,-0.2533,-0.2562,-0.261,-0.2625,-0.2611,-0.2536,-0.2612,-0.2456,-0.2427,-0.2563,-0.2561,-0.2542,-0.2536,-0.2593,-0.2593,-0.2593,-0.2593,0,-0.1677,-0.1767,-0.1844,-0.198,-0.2028,-0.2084,-0.2218,-0.2263,-0.2375,-0.2442,-0.2473,-0.2566,-0.258,-0.2608,-0.2611,-0.2534,-0.2489,-0.2447,-0.2599,-0.258,-0.2317,-0.2314,-0.2278,-0.2273,-0.2269,-0.2266,-0.2263,0,-0.1638,-0.1672,-0.1829,-0.1875,-0.1943,-0.2043,-0.2098,-0.2231,-0.2276,-0.2419,-0.2428,-0.2498,-0.2541,-0.2428,-0.2476,-0.2428,-0.2406,-0.2365,-0.2332,-0.2307,-0.2284,-0.2288,-0.2291,-0.2256,-0.2255,-0.2254,-0.2253,0,-0.1555,-0.1629,-0.1693,-0.1785,-0.1862,-0.1934,-0.2028,-0.2045,-0.2187,-0.2315,-0.232,-0.232,-0.2336,-0.2325,-0.2311,-0.2278,-0.2377,-0.2321,-0.2329,-0.2297,-0.228,-0.2262,-0.227,-0.2238,-0.224,-0.2242,-0.2243,0,-0.1493,-0.1516,-0.1604,-0.1668,-0.1759,-0.1784,-0.1858,-0.1908,-0.1969,-0.2136,-0.2132,-0.2215,-0.2314,-0.2248,-0.2233,-0.219,-0.2151,-0.2074,-0.2094,-0.2111,-0.2056,-0.2009,-0.1857,0,0,0,0,0,-0.1415,-0.1421,-0.1474,-0.1536,-0.1616,-0.1663,-0.1786,-0.1863,-0.2012,-0.1964,-0.2042,-0.2052,-0.2032,-0.2077,-0.1993,-0.2148,-0.2154,-0.2041,-0.2075,-0.2158,-0.2175,-0.2126,0,0,0,0,0,0,-0.1361,-0.1405,-0.1422,-0.1399,-0.1414,-0.1481,-0.155,-0.1656,-0.1648,-0.1808,-0.1807,-0.1928,-0.1937,-0.2045,-0.195,-0.1962,-0.1942,-0.2105,-0.21,-0.2149,-0.2164,-0.2177,-0.2133,0,0,0,0,0]},{"header":{"parameterUnit":"m.s-1","parameterCategory":2,"la1":30.2991,"la2":30.254,"lo1":-89.0895,"lo2":-89.0444,"dy":0.0017,"dx":0.0017,"nx":28,"ny":28,"refTime":"2024-02-18T03:00:00:Z","depth":"4","parameterNumber":3,"parameterNumberName":"V-component_of_CURRENTS"},"data":[0,0,0,0,0,0,0,0,0,0,0,0,0,0,0,0,0,0,0,0,0,0,0,0,0,0,0,0,0,0,0,0,0,0,0,0,0,0,0,0,0,0,0,0,0,0,0,0,0,0,0,0,0,0,0,0,0,0,-0.0081,-0.008,0,-0.0018,-0.0017,-0.0017,0.0027,0.0028,0.0028,0.0028,0.012,0.0122,0.0124,0,0,0,0,0,0,0,0,0,0,0,0,0,-0.0125,-0.0125,-0.0081,-0.008,-0.0079,-0.0018,-0.0017,-0.0016,0.0027,0.0028,0.0028,0.0028,0.0119,0.0121,0.0124,0,0,0,0,0,0,0,0,0,0,0,0,0,-0.0088,-0.0125,-0.0081,-0.0051,-0.0047,-0.0018,-0.0017,-0.0016,0.0027,0.0028,0.0028,0.0029,0.0118,0.0121,0.0124,0.0135,0,0,0.0134,0.0136,0,0,0,0,0,0,0,0,-0.0091,-0.0087,-0.0056,-0.0053,-0.0049,-0.0003,0.0,0.0036,0.0027,-0.0,0.0028,0.0029,0.0081,0.0087,0.0098,0.0139,0.0143,0.0134,0.0136,0.0138,0.0139,0,0,0,0,0,0,0,-0.0093,-0.0089,-0.0056,-0.0055,-0.0051,-0.0027,-0.0022,0.0007,0.0038,0.0002,0.0005,0.0011,0.0083,0.0095,0.01,0.0145,0.0134,0.0137,0.0139,0.014,0.0197,0.0197,0,0,0,0,0,0,-0.0104,-0.0092,-0.0058,-0.0054,-0.0069,-0.0027,-0.0021,-0.0018,0.0037,0.0045,0.0011,0.0013,0.0089,0.0097,0.0104,0.0113,0.0138,0.0141,0.0143,0.0197,0.0197,0.0196,0,0,0,0,0,0,-0.0106,-0.0102,-0.006,-0.0071,-0.0064,-0.0027,-0.0024,-0.0017,-0.0006,0.0043,0.0052,0.0014,0.009,0.0099,0.0123,0.0118,0.0142,0.0145,0.0198,0.0197,0.0197,0.0137,0,0,0,0,0,0,-0.0107,-0.0103,-0.0108,-0.0072,-0.0064,-0.0051,-0.0024,-0.0016,-0.0003,0.0,0.0049,0.0058,0.0091,0.0118,0.0126,0.0122,0.0148,0.0199,0.0198,0.0197,0.0139,0.0134,0.013,0,0,0,0,0,-0.0109,-0.0118,-0.0109,-0.0104,-0.0071,-0.0051,-0.0045,-0.0016,-0.0004,-0.0004,0.0028,0.0056,0.0119,0.012,0.013,0.0127,0.0199,0.0198,0.0197,0.0141,0.0135,0.013,0,0,0,0,0,0,-0.0139,-0.0113,-0.0102,-0.0103,-0.0082,-0.0044,-0.0043,-0.0023,0.0002,0.0004,0.0052,0.0063,0.0084,0.011,0.0111,0.014,0.0163,0.0164,0.0118,0.0112,0.0108,0.0098,0.015,0,0,0,0,0,-0.0149,-0.0151,-0.012,-0.0122,-0.0114,-0.0081,-0.007,-0.0052,-0.0024,-0.0012,0.0023,0.0057,0.0088,0.0103,0.0135,0.0148,0.0181,0.0152,0.0147,0.0143,0.0142,0.0184,0.0182,0.0193,0.0193,0.0193,0,0,-0.0161,-0.0149,-0.0149,-0.0129,-0.0111,-0.0108,-0.0073,-0.0064,-0.006,-0.0006,0.0007,0.0044,0.0089,0.0107,0.0118,0.0127,0.0156,0.0142,0.0138,0.0139,0.0182,0.0182,0.0181,0.0193,0.0193,0.0193,0,0,-0.019,-0.0177,-0.0188,-0.0176,-0.0157,-0.0134,-0.0135,-0.0101,-0.0086,-0.007,-0.0028,0.0002,0.0044,0.0077,0.0098,0.0084,0.0133,0.0095,0.0061,0.0101,0.0101,0.0101,0.0136,0.014,0.0088,0.0088,0.0088,0,-0.0207,-0.0215,-0.0188,-0.0196,-0.0193,-0.0151,-0.0162,-0.014,-0.0103,-0.0091,-0.0077,-0.0007,0.0029,0.006,0.0056,0.0074,0.0105,0.0078,0.0095,0.0096,0.0097,0.0133,0.0138,0.0085,0.0086,0.0086,0.0086,0,-0.0241,-0.0249,-0.0255,-0.0252,-0.0244,-0.0247,-0.0216,-0.0205,-0.0181,-0.0152,-0.0117,-0.0065,-0.0024,-0.0008,0.002,0.0045,0.0067,0.0087,0.0108,0.0092,0.0131,0.0137,0.0081,0.0082,0.0083,0.0084,0,0,-0.0272,-0.0279,-0.0281,-0.0295,-0.0276,-0.0276,-0.027,-0.0249,-0.0245,-0.0202,-0.0187,-0.0132,-0.0095,-0.0068,-0.0023,0.0011,0.0042,0.0045,0.0049,0.0078,0.013,0.0137,0.0144,0.0067,0.0068,0.0068,0.0153,0,-0.0306,-0.0341,-0.033,-0.0361,-0.0375,-0.0344,-0.0346,-0.0322,-0.0286,-0.026,-0.0197,-0.0164,-0.0119,-0.01,-0.0059,0.0023,0.0056,0.0017,0.0144,0.0148,0.0154,0.0151,0.0071,0.0158,0.0159,0.016,0.0161,0,-0.0338,-0.036,-0.04,-0.0422,-0.0426,-0.0441,-0.0434,-0.0424,-0.037,-0.0344,-0.029,-0.0231,-0.0167,-0.0133,-0.0007,-0.0032,0.004,0.01,0.0106,0.0137,0.0166,0.018,0.0173,0.0172,0.0171,0.017,0.0169,0,-0.0374,-0.0407,-0.0445,-0.0452,-0.0467,-0.0487,-0.0489,-0.0454,-0.0449,-0.0388,-0.0372,-0.0281,-0.0238,-0.0132,0.0001,-0.0003,0.0143,0.0152,0.0226,0.0228,0.0224,0.0223,0.0234,0.0234,0.0233,0.0233,0.0233,0,-0.0408,-0.0441,-0.0474,-0.0497,-0.0551,-0.0538,-0.057,-0.0553,-0.0523,-0.0514,-0.0417,-0.0381,-0.0236,-0.0128,-0.0011,0.0133,0.0138,0.0222,0.025,0.0195,0.0191,0.0228,0.0226,0.0236,0.0236,0.0235,0.0234,0,-0.0435,-0.0454,-0.0507,-0.055,-0.0572,-0.0607,-0.0641,-0.0652,-0.0611,-0.0593,-0.0577,-0.0458,-0.0319,-0.0161,0.0015,0.0109,0.025,0.0298,0.0229,0.0253,0.0307,0.0301,0.0375,0.0376,0.0377,0.0378,0.0378,0,-0.0448,-0.0477,-0.0554,-0.0599,-0.0627,-0.0677,-0.0712,-0.0702,-0.07,-0.0632,-0.0621,-0.0495,-0.0398,-0.0141,0.0024,0.0247,0.0277,0.0349,0.0323,0.0302,0.0322,0.0315,0.0308,0.038,0.038,0.038,0.038,0,-0.0473,-0.0504,-0.055,-0.0645,-0.0707,-0.0763,-0.0803,-0.0813,-0.0779,-0.075,-0.0653,-0.051,-0.0352,-0.0151,0.0027,0.0189,0.0303,0.0357,0.0356,0.0333,0.0308,0.0325,0.0318,0.0383,0.0382,0.0382,0.0382,0,-0.0488,-0.0532,-0.0599,-0.0679,-0.076,-0.082,-0.0843,-0.0835,-0.0828,-0.0746,-0.0715,-0.0531,-0.0426,-0.018,-0.0009,0.0147,0.0175,0.0221,0.0227,0.0226,0.0161,0.0106,0.0144,0,0,0,0,0,-0.0493,-0.0546,-0.0627,-0.0715,-0.0795,-0.0841,-0.0885,-0.0887,-0.086,-0.0804,-0.0759,-0.0606,-0.0349,-0.0226,-0.0073,-0.0005,0.0197,0.018,0.0251,0.0398,0.0395,0.0344,0,0,0,0,0,0,-0.05,-0.0575,-0.0623,-0.0721,-0.0784,-0.0866,-0.0899,-0.0889,-0.0842,-0.0794,-0.0658,-0.057,-0.0321,-0.0443,-0.0071,-0.0021,0.0045,0.0307,0.031,0.04,0.0397,0.0394,0.0341,0,0,0,0,0]}]]